Location: Colle Santa Colomba
(42.0333°N, 12.5667°E)
Time: 02:52:24
(UTC+00:00)

Cosmos 1300 - Pass Details

Date: 25 October 2021
Orbit: 509 x 512 km, 82.5° (Epoch: 28 November)

Event Time Altitude Azimuth Distance (km) Brightness Sun altitude
Rises 17:35:28 0° 205° (SSW) 2,611 6.7 -15.9°
Reaches altitude 10° 17:37:42 10° 214° (SSW) 1,730 5.8 -16.3°
Maximum altitude 17:41:14 37° 282° (WNW) 813 4.3 -17.0°
Drops below altitude 10° 17:44:48 10° 351° (N) 1,742 5.5 -17.7°
Sets 17:47:03 0° 0° (N) 2,633 6.3 -18.1°
